FW4518 Weather Reports


Display with metric or nautical units.
time (UTC)temp
F
wind
direction
speed
MPH
gust
MPH
rain 1hr
in
rain 24hr
in
rain mn
in
humidity
%
barometer
mb
20260507122630 45 0.0 1.0 0.00 0.00 0.00 92 1018.8
20260507121630 45 0.0 0.0 0.00 0.00 0.00 92 1018.8
20260507120630 45 0.0 0.0 0.00 0.00 0.00 92 1018.9
20260507115650 45 0.0 0.0 0.00 0.00 0.00 91 1018.9
20260507114630 46 0.0 0.0 0.00 0.00 0.00 90 1018.9
20260507113650 46 272 0.0 2.0 0.00 0.00 0.00 90 1018.9
20260507112630 47 0.0 0.0 0.00 0.00 0.00 89 1019.0
20260507111650 48 18 0.0 2.0 0.00 0.00 0.00 85 1018.9
20260507110650 49 0.0 0.0 0.00 0.00 0.00 84 1018.9
20260507105630 50 0.0 0.0 0.00 0.00 0.00 82 1018.9
20260507104630 51 0.0 1.0 0.00 0.00 0.00 80 1018.9
20260507103630 51 82 0.0 2.0 0.00 0.00 0.00 81 1018.9
20260507102630 49 183 1.0 5.0 0.00 0.00 0.00 84 1019.0
20260507101630 50 202 1.0 3.0 0.00 0.00 0.00 84 1019.0
20260507100630 51 0.0 0.0 0.00 0.00 0.00 81 1019.0
20260507095652 52 0.0 1.0 0.00 0.00 0.00 79 1019.0
20260507094630 52 0.0 1.0 0.00 0.00 0.00 81 1019.1
20260507093630 52 184 1.0 3.0 0.00 0.00 0.00 81 1018.9
20260507092650 51 0.0 1.0 0.00 0.00 0.00 84 1019.0
20260507091630 53 198 0.0 2.0 0.00 0.00 0.00 81 1019.0
20260507090730 53 0.0 0.0 0.00 0.00 0.00 81 1019.0
20260507085650 53 0.0 0.0 0.00 0.00 0.00 79 1019.2
20260507084631 53 0.0 0.0 0.00 0.00 0.00 79 1019.2
20260507083630 55 0.0 0.0 0.00 0.00 0.00 75 1019.2
20260507082630 57 0.0 0.0 0.00 0.00 0.00 73 1019.1
20260507081630 58 154 2.0 6.0 0.00 0.00 0.00 71 1019.1
20260507080630 59 290 1.0 3.0 0.00 0.00 0.00 72 1019.1
20260507075631 58 31 0.0 2.0 0.00 0.00 0.00 73 1019.2
20260507074630 57 188 2.0 5.0 0.00 0.00 0.00 72 1019.3
20260507073630 57 196 0.0 2.0 0.00 0.00 0.00 71 1019.4
20260507072650 59 263 0.0 3.0 0.00 0.00 0.00 68 1019.3
20260507071630 60 150 2.0 5.0 0.00 0.00 0.00 65 1019.3
20260507070630 60 0.0 1.0 0.00 0.00 0.00 66 1019.4
20260507065630 60 142 1.0 4.0 0.00 0.00 0.00 66 1019.5
20260507064650 60 0.0 1.0 0.00 0.00 0.00 66 1019.5
20260507063630 60 273 0.0 2.0 0.00 0.00 0.00 66 1019.6
20260507062630 62 212 1.0 5.0 0.00 0.00 0.00 63 1019.5
20260507061631 61 194 2.0 5.0 0.00 0.00 0.00 63 1019.5
20260507060630 61 145 0.0 2.0 0.00 0.00 0.00 62 1019.6
20260507055630 62 186 3.0 6.0 0.00 0.00 0.00 61 1019.6
20260507054630 62 203 1.0 4.0 0.00 0.00 0.00 59 1019.7
20260507053630 63 196 1.0 4.0 0.00 0.00 0.00 59 1019.6
20260507052630 63 164 0.0 2.0 0.00 0.00 0.00 58 1019.7
20260507051630 61 192 2.0 6.0 0.00 0.00 0.00 62 1019.7
20260507050631 62 198 2.0 5.0 0.00 0.00 0.00 60 1019.7
20260507045630 62 168 1.0 2.0 0.00 0.00 0.00 58 1019.7
20260507044630 62 0.0 2.0 0.00 0.00 0.00 59 1019.7
20260507043630 64 331 0.0 3.0 0.00 0.00 0.00 55 1019.7
20260507042651 64 323 0.0 3.0 0.00 0.00 0.00 55 1019.6
20260507041651 65 190 0.0 2.0 0.00 0.00 0.00 54 1019.6
20260507040631 65 194 2.0 5.0 0.00 0.00 0.00 54 1019.4
20260507035631 66 189 1.0 4.0 0.00 0.00 0.00 54 1019.3
20260507034630 67 209 0.0 2.0 0.00 0.00 0.00 54 1019.1
20260507033631 68 163 1.0 3.0 0.00 0.00 0.00 51 1019.0
20260507032631 69 252 1.0 3.0 0.00 0.00 0.00 50 1018.9
20260507031630 69 308 1.0 3.0 0.00 0.00 0.00 49 1018.8
20260507030732 70 325 1.0 7.0 0.00 0.00 0.00 48 1018.7
20260507025630 71 214 1.0 5.0 0.00 0.00 0.00 48 1018.6
20260507024631 71 295 2.0 7.0 0.00 0.00 0.00 47 1018.6
20260507023631 71 359 4.0 9.0 0.00 0.00 0.00 47 1018.5
20260507022631 71 357 2.0 6.0 0.00 0.00 0.00 47 1018.4
20260507021631 72 352 2.0 4.0 0.00 0.00 0.00 46 1018.3
20260507020710 72 6 2.0 9.0 0.00 0.00 0.00 45 1018.3
20260507015630 73 290 3.0 8.0 0.00 0.00 0.00 44 1018.3
20260507014630 73 223 4.0 9.0 0.00 0.00 0.00 44 1018.2
20260507013635 73 278 3.0 7.0 0.00 0.00 0.00 44 1018.2
20260507012630 74 18 3.0 8.0 0.00 0.00 0.00 43 1018.1
20260507011631 74 10 4.0 8.0 0.00 0.00 0.00 42 1018.2
20260507010631 74 350 4.0 10.0 0.00 0.00 0.00 41 1018.2
20260507005631 75 36 5.0 11.0 0.00 0.00 0.00 41 1018.1
20260507004631 76 253 6.0 14.0 0.00 0.00 0.00 41 1018.0
20260507003711 76 11 5.0 12.0 0.00 0.00 0.00 42 1017.9
20260507002632 77 253 4.0 13.0 0.00 0.00 0.00 42 1017.8
20260507001651 77 334 5.0 12.0 0.00 0.00 0.00 41 1017.8
20260507000631 77 271 6.0 12.0 0.00 0.00 0.00 40 1017.7
20260506235631 78 221 4.0 8.0 0.00 0.00 0.00 43 1017.6
20260506234631 79 196 7.0 17.0 0.00 0.00 0.00 42 1017.4
20260506233631 80 240 5.0 13.0 0.00 0.00 0.00 41 1017.4
20260506232631 80 201 5.0 12.0 0.00 0.00 0.00 41 1017.4
20260506231631 80 273 6.0 13.0 0.00 0.00 0.00 40 1017.3
20260506230631 80 136 5.0 9.0 0.00 0.00 0.00 41 1017.3
20260506225631 81 296 6.0 11.0 0.00 0.00 0.00 40 1017.2
20260506224631 81 259 5.0 11.0 0.00 0.00 0.00 40 1017.3
20260506223631 81 320 6.0 16.0 0.00 0.00 0.00 40 1017.4
20260506222651 81 149 7.0 13.0 0.00 0.00 0.00 41 1017.3
20260506221631 82 229 6.0 13.0 0.00 0.00 0.00 39 1017.4
20260506220631 82 175 5.0 11.0 0.00 0.00 0.00 38 1017.4
20260506215631 81 144 6.0 16.0 0.00 0.00 0.00 39 1017.4
20260506214651 82 304 5.0 14.0 0.00 0.00 0.00 38 1017.3
20260506213653 83 350 3.0 8.0 0.00 0.00 0.00 35 1017.3
20260506212641 82 15 4.0 8.0 0.00 0.00 0.00 36 1017.4
20260506211632 82 33 4.0 10.0 0.00 0.00 0.00 35 1017.4
20260506210712 82 300 5.0 10.0 0.00 0.00 0.00 37 1017.4
20260506205634 82 157 3.0 6.0 0.00 0.00 0.00 38 1017.5
20260506204631 81 175 4.0 11.0 0.00 0.00 0.00 37 1017.6
20260506203631 81 220 4.0 10.0 0.00 0.00 0.00 37 1017.7
20260506202631 79 153 2.0 5.0 0.00 0.00 0.00 38 1017.8
20260506201631 79 185 6.0 12.0 0.00 0.00 0.00 39 1017.8
20260506200631 79 238 5.0 8.0 0.00 0.00 0.00 39 1017.8
20260506195631 79 194 5.0 13.0 0.00 0.00 0.00 40 1017.9
20260506194531 79 247 0.0 3.0 0.00 0.00 0.00 40 1018.0
20260506193631 78 203 4.0 7.0 0.00 0.00 0.00 41 1018.3
20260506192632 79 259 3.0 7.0 0.00 0.00 0.00 39 1018.4
20260506191631 78 208 4.0 9.0 0.00 0.00 0.00 41 1018.5
20260506190631 79 212 3.0 10.0 0.00 0.00 0.00 40 1018.7
20260506185631 76 223 3.0 7.0 0.00 0.00 0.00 43 1018.7
20260506184631 75 130 5.0 9.0 0.00 0.00 0.00 45 1018.8
20260506183631 74 178 4.0 9.0 0.00 0.00 0.00 45 1018.9
20260506182631 74 333 3.0 6.0 0.00 0.00 0.00 46 1019.0
20260506181632 74 173 2.0 6.0 0.00 0.00 0.00 47 1019.2
20260506180631 74 221 2.0 6.0 0.00 0.00 0.00 47 1019.3
20260506175631 73 209 4.0 7.0 0.00 0.00 0.00 50 1019.3
20260506174631 73 207 2.0 5.0 0.00 0.00 0.00 51 1019.3
20260506173632 72 197 2.0 6.0 0.00 0.00 0.00 52 1019.3
20260506172632 71 125 4.0 7.0 0.00 0.00 0.00 54 1019.3
20260506171632 70 203 3.0 6.0 0.00 0.00 0.00 56 1019.4
20260506170631 69 154 3.0 7.0 0.00 0.00 0.00 57 1019.5
20260506165652 68 166 4.0 7.0 0.00 0.00 0.00 59 1019.6
20260506164712 67 66 4.0 7.0 0.00 0.00 0.00 60 1019.6
20260506163633 66 145 4.0 8.0 0.00 0.00 0.00 60 1019.6
20260506162652 65 181 4.0 7.0 0.00 0.00 0.00 62 1019.6
20260506161632 63 157 4.0 8.0 0.00 0.00 0.00 64 1019.7
20260506160632 63 145 4.0 7.0 0.00 0.00 0.00 64 1019.8
20260506155652 62 72 4.0 8.0 0.00 0.00 0.00 65 1019.7
20260506154632 61 92 3.0 9.0 0.00 0.00 0.00 66 1019.7
20260506153632 60 40 6.0 10.0 0.00 0.00 0.00 69 1019.7
20260506152632 59 111 5.0 8.0 0.00 0.00 0.00 70 1019.8
20260506151632 58 96 6.0 10.0 0.00 0.00 0.00 72 1019.8
20260506150632 58 43 7.0 10.0 0.00 0.00 0.00 73 1019.6
20260506145632 57 133 5.0 8.0 0.00 0.00 0.00 74 1019.7
20260506144652 57 113 5.0 8.0 0.00 0.00 0.00 76 1019.7
20260506143631 56 71 5.0 7.0 0.00 0.00 0.00 75 1019.5
20260506142633 56 135 6.0 8.0 0.00 0.00 0.00 74 1019.4
20260506141632 56 68 3.0 5.0 0.00 0.00 0.00 76 1019.3
20260506140652 54 40 3.0 7.0 0.00 0.00 0.00 80 1019.1
20260506135632 53 84 4.0 5.0 0.00 0.00 0.00 82 1019.0
20260506134632 51 156 2.0 5.0 0.00 0.00 0.00 84 1018.9
20260506133632 51 205 3.0 5.0 0.00 0.00 0.00 84 1018.9
20260506132652 53 106 3.0 5.0 0.00 0.00 0.00 80 1018.8
20260506131632 52 159 1.0 5.0 0.00 0.00 0.00 80 1018.7
20260506130632 51 67 3.0 6.0 0.00 0.00 0.00 82 1018.6
20260506125652 48 154 2.0 4.0 0.00 0.00 0.00 86 1018.8
20260506124652 48 191 3.0 4.0 0.00 0.00 0.00 86 1018.9
20260506123632 49 144 3.0 6.0 0.00 0.00 0.00 86 1018.8